OBJECT Q, 57180

Orbit data source: Space-Track

You're viewing an Uncataloged Satellite

Recently launched and/or uncataloged satellites may have evolving metadata. Metadata may include but not limited to: Owner, Maufacturer, Bus, Motor, and Mission.

OBJECT Q, 57180 is a satellite in SSO that was launched on Tue, 27 Jun 2023 UTC via a SOYUZ-2-1B launch vehicle from the Vostochny Cosmodrome (VOSTO). Unknown objects in Earth's orbit typically refer to objects detected orbiting the Earth but have not yet been identified or cataloged. These objects could be anything from previously untracked satellites, spent rocket stages, debris from satellite collisions, or even natural meteoroids temporarily captured by Earth's gravity.

Loading next visibility...
Identifier
57180, 2023-091Q
Orbit
SSO
Country
Flag of TBDTBD
Related business
Manufacturer
Sputniks
Mission
Operational Amateur Science
Bus & Motor
CUBESAT 3U, Unknown motor
Mass
5 kg wet, 5 kg dry
Launch date (UTC)
2023-06-27 (3 years ago)
Launch vehicle
SOYUZ-2-1B
Launch site
Vostochny Cosmodrome (VOSTO)
Object type
Unknown
Shape & HBR
Box, 0.2 m
Radar Cross Section
0.035 m², Medium (>0.1 m² and < 1m²)

Expand to show TLE details & history
Last TLE update: 20 hours ago

TLE from 20 hours ago
0 OBJECT Q
1 57180U 23091Q   26207.61588840  .00010603  00000-0  38365-3 0  9991
2 57180  97.5067 271.3657 0009942 326.8242  33.2373 15.28561740170311
Epoch: 2026-07-26T14:46Z
TLE epoch observation values (Epoch: 2026-07-26T14:46:52.757Z)
Latitude
-0.00004°
Longitude
105.33462°
Altitude
477.508 km
Speed
7.63 km/s
True Right ascension
18h 05m 27s
True Declination
0° 00' 00"
Sunlit
Object was in full shadow at epoch
Visualization orbit readout
Latitude
Unknown
Longitude
Unknown
Altitude
Unknown
Speed
Unknown
Apparent Right ascension
Unknown
Apparent Declination
Unknown
Sunlit
N/A
Visualization observer readout
Local Sidereal Time
00:03:10
Azimuth
Unknown
Elevation
Unknown
Doppler factor
Unknown
Orbital elements
Apogee altitude
483.885 km
Perigee altitude
470.254 km
Semi-major axis
6,855.207 km
Eccentricity
0.00099
Inclination
97.5067°
RAAN
271.3657°
Arg. of periapsis
326.8242°
True anomaly
33.29981°
Mean anomaly
33.2373°
Eccentric anomaly
33.26855°
Mean motion
3.82395 °/min
Orbital period
94.14 mins
BSTAR
0.00038365
Loading maneuver chart data...
Computing Atmospheric mass density...
Loading historical data...
Loading historical data...
Loading historical data...
Loading historical data...
Loading historical data...
Loading historical data...
Loading historical data...

Documentation

Showing up to 5 results
|